Location: Czekanka
(50.4925°N, 19.2643°E)
Time: 12:49:08
(UTC+00:00)

Cosmos 2058 Rocket - Pass Details

Date: 15 June 2024
Orbit: 606 x 636 km, 82.5° (Epoch: 16 July)

Event Time Altitude Azimuth Distance (km) Brightness Sun altitude
Rises 01:30:51 0° 352° (N) 2,932 7.2 -7.5°
Reaches altitude 10° 01:33:09 10° 356° (N) 2,015 6.4 -7.2°
Maximum altitude 01:37:34 61° 77° (ENE) 708 3.7 -6.8°
Drops below altitude 10° 01:41:55 10° 158° (SSE) 1,980 5.4 -6.3°
Sets 01:44:09 0° 162° (SSE) 2,876 6.2 -6.1°
